Location: ??????
(31.2056°N, 45.3906°E)
Time: 12:18:00
(UTC+00:00)

Hubble Space Telescope - Pass Details

Date: 09 April 2020
Orbit: 536 x 540 km, 28.5° (Epoch: 04 June)

Event Time Altitude Azimuth Distance (km) Brightness Sun altitude
Rises 15:39:20 0° 246° (WSW) 2,664 5.3 -4.2°
Reaches altitude 10° 15:41:40 10° 239° (WSW) 1,775 4.2 -4.7°
Maximum altitude 15:45:33 42° 168° (SSE) 762 1.4 -5.5°
Drops below altitude 10° 15:49:27 10° 97° (E) 1,777 2.7 -6.3°
Enters shadow 15:49:56 - 95° (E) 1,957 3.0 -6.4°
